Location: Chuathbaluk
(61.5726°N, 159.2454°W)
Time: 22:40:00
(UTC+00:00)

Transit 4A - Pass Details

Date: 03 December 2020
Orbit: 864 x 981 km, 66.8° (Epoch: 19 January)

Event Time Altitude Azimuth Distance (km) Brightness Sun altitude
Rises 00:01:26 0° 299° (WNW) 3,694 11.0 4.2°
Reaches altitude 10° 00:04:02 10° 302° (WNW) 2,744 10.3 4.0°
Maximum altitude 00:10:29 75° 28° (NNE) 1,014 8.1 3.7°
Drops below altitude 10° 00:16:49 10° 114° (ESE) 2,695 10.3 3.4°
Sets 00:19:21 0° 116° (ESE) 3,625 11.0 3.3°
